This is the latest recevied weather packets stored in our database for station/object W5ADC. If no packets are shown the sender has not sent any weather packets the latest 10 day(s).
| Time | Temp. | Humidity | Pressure | Rain* | Wind** | Luminosity | Snow |
|---|---|---|---|---|---|---|---|
| 1777515884 | 16.67° C | 84% | 1010.5 hPa | 0 mm | - | 0 W/m² | - |
| 1777515579 | 16.67° C | 84% | 1010.8 hPa | 0 mm | - | 0 W/m² | - |
| 1777515277 | 16.67° C | 84% | 1010.4 hPa | 0 mm | - | 0 W/m² | - |
| 1777514972 | 16.67° C | 84% | 1010.2 hPa | 0 mm | - | 0 W/m² | - |
| 1777514669 | 16.67° C | 85% | 1010.2 hPa | 0 mm | - | 0 W/m² | - |
| 1777514366 | 16.67° C | 85% | 1010.4 hPa | 0 mm | - | 0 W/m² | - |
| 1777514063 | 16.67° C | 84% | 1010.2 hPa | 0 mm | - | 0 W/m² | - |
| 1777513760 | 16.67° C | 85% | 1010.4 hPa | 0 mm | - | 0 W/m² | - |
| 1777513458 | 16.67° C | 84% | 1010 hPa | 0 mm | - | 0 W/m² | - |
| 1777513154 | 16.67° C | 84% | 1009.9 hPa | 0 mm | - | 0 W/m² | - |
| 1777512850 | 16.67° C | 84% | 1009.5 hPa | 0 mm | - | 0 W/m² | - |
| 1777512547 | 16.67° C | 85% | 1009.4 hPa | 0 mm | - | 0 W/m² | - |
| 1777512243 | 16.67° C | 84% | 1009.6 hPa | 0 mm | - | 0 W/m² | - |
| 1777511940 | 16.67° C | 85% | 1009.9 hPa | 0 mm | - | 0 W/m² | - |
| 1777511638 | 16.67° C | 86% | 1009.6 hPa | 0 mm | - | 0 W/m² | - |
| 1777511336 | 16.67° C | 85% | 1009.5 hPa | 0 mm | - | 1 W/m² | - |
| 1777511031 | 16.67° C | 85% | 1009.4 hPa | 0 mm | - | 2 W/m² | - |
| 1777510728 | 16.67° C | 84% | 1009.7 hPa | 0 mm | - | 3 W/m² | - |
| 1777510424 | 16.67° C | 84% | 1009.8 hPa | 0 mm | - | 4 W/m² | - |
| 1777510120 | 16.67° C | 85% | 1009.8 hPa | 0 mm | - | 7 W/m² | - |
| 1777509817 | 16.67° C | 84% | 1009.7 hPa | 0 mm | - | 9 W/m² | - |
| 1777509513 | 16.67° C | 85% | 1009.7 hPa | 0 mm | - | 16 W/m² | - |
| 1777509210 | 16.67° C | 86% | 1009.3 hPa | 0 mm | - | 15 W/m² | - |
| 1777508907 | 16.67° C | 86% | 1009.4 hPa | 0 mm | - | 24 W/m² | - |
| 1777508604 | 16.67° C | 86% | 1009.8 hPa | 0 mm | - | 20 W/m² | - |
* Rain latest hour (hover to see other rain measurements)
** Current wind speed in m/s (hover to see current wind gust speed)